Home   Weather   New Orleans   Past weeks
Flag for USA

Past Weather in New Orleans, Louisiana, USA — Yesterday and Last 2 Weeks

Now
73 °F

Partly sunny.


Feels Like: 71 °F
Forecast: 83 / 72 °F
Wind: 7 mph from East

Location: Lakefront Airport

Current Time: Oct 14, 2019 at 8:40:09 am

Latest Report: Oct 14, 2019 at 7:53 am


Visibility: 10 mi

Pressure: 30.02 "Hg

Humidity: 88%

Dew Point: 69 °F

Location of New OrleansLocation

Past Weather in New Orleans — Graph

°F

New Orleans Temperature Yesterday

Maximum temperature yesterday: 78 °F (at 4:53 pm)
Minimum temperature yesterday: 68 °F (at 12:53 am)
Average temperature yesterday: 73 °F

High & Low Weather Summary for the Past Weeks

 TemperatureHumidityPressure
High93 °F (Oct 1, 2:53 pm)93% (Oct 12, 4:53 am)30.11 "Hg (Oct 12, 4:53 am)
Low63 °F (Oct 12, 9:53 am)43% (Oct 1, 3:53 pm)29.89 "Hg (Oct 7, 4:53 pm)
Average81 °F73%29.99 "Hg
* Reported Sep 29 6:53 am — Oct 14 6:53 am, New Orleans. Weather by CustomWeather, © 2019

Note: Actual official high and low records may vary slightly from our data, if they occured in-between our weather recording intervals... More about our weather records

Advertising

New Orleans Weather History for the Previous 24 Hours

Scroll right to see more
 ConditionsComfort  
Time TempWeatherWind HumidityBarometerVisibility
6:53 am
Mon, Oct 14
72 °FClear.6 mph84%30.01 "Hg10 mi
5:53 am72 °FClear.8 mph84%30.01 "Hg10 mi
4:53 am73 °FClear.7 mph84%30.00 "Hg10 mi
3:53 am73 °FClear.8 mph84%30.00 "Hg10 mi
2:53 am73 °FLight rain. Passing clouds.10 mph81%30.00 "Hg10 mi
1:53 am73 °FPassing clouds.8 mph76%30.01 "Hg10 mi
12:53 am72 °FPassing clouds.10 mph78%30.02 "Hg10 mi
11:53 pm
Sun, Oct 13
73 °FClear.13 mph76%30.03 "Hg10 mi
11:19 pm73 °FLight rain. Passing clouds.13 mph76%30.04 "Hg10 mi
11:09 pm73 °FLight rain. Passing clouds.14 mph76%30.04 "Hg10 mi
10:53 pm74 °FLight rain. Passing clouds.14 mph74%30.02 "Hg10 mi
9:53 pm75 °FLight rain. Clear.14 mph74%30.02 "Hg10 mi
8:53 pm76 °FLight rain. Clear.17 mph72%30.01 "Hg10 mi
7:53 pm78 °FClear.5 mph71%30.00 "Hg10 mi
6:53 pm78 °FClear.No wind71%29.99 "Hg10 mi
5:53 pm78 °FSunny.5 mph71%29.97 "Hg10 mi
4:53 pm78 °FSunny.3 mph71%29.97 "Hg10 mi
3:53 pm77 °FSunny.6 mph71%29.97 "Hg10 mi
2:53 pm77 °FSunny.7 mph71%29.97 "Hg10 mi
1:53 pm77 °FSunny.5 mph71%29.99 "Hg10 mi
12:53 pm77 °FSunny.5 mph71%30.01 "Hg10 mi
11:53 am76 °FSunny.6 mph74%30.03 "Hg10 mi
11:21 am74 °FScattered clouds.7 mph74%30.06 "Hg10 mi
10:53 am73 °FPartly sunny.8 mph74%30.04 "Hg10 mi
9:53 am71 °FOvercast.6 mph81%30.05 "Hg10 mi
8:53 am70 °FOvercast.8 mph81%30.05 "Hg10 mi
Weather by CustomWeather, © 2019

See weather overview